Simultaneous Nadir Overpasses (SNOs) Predictions

Prediction of SNOs between LANDSAT-8 and METOP-B Satellite Orbit:

Table of predicted SNOs for the next 14.0 days since TLE Epoch: 3/9/2018
Index Date (LANDSAT-8) Time (LANDSAT-8) Lat,Lon (LANDSAT-8) SZA (LANDSAT-8 ) Date (METOP-B) Time (METOP-B) Lat,Lon (METOP-B) SZA (METOP-B ) Distance(km) Time Diff (sec)
1 03/10/2018 12:15:20 -81.12,-144.39 93.15 03/10/2018 12:14:19 -81.12,-144.45 93.17 1.06 61
2 03/10/2018 13:04:45 81.15, 23.71 86.91 03/10/2018 13:04:58 81.15, 23.66 86.91 0.75 13
3 03/13/2018 07:49:33 -81.13, -77.77 94.20 03/13/2018 07:48:40 -81.13, -77.79 94.23 0.40 53
4 03/13/2018 08:38:58 81.16, 90.30 85.85 03/13/2018 08:39:19 81.16, 90.31 85.86 0.33 21
5 03/16/2018 03:23:46 -81.14, -11.18 95.27 03/16/2018 03:23:01 -81.14, -11.14 95.29 0.75 45
6 03/16/2018 04:13:11 81.17, 156.87 84.78 03/16/2018 04:13:40 81.17, 156.95 84.80 1.44 29
7 03/18/2018 22:57:58 -81.15, 55.38 96.34 03/18/2018 22:57:21 -81.15, 55.51 96.35 2.22 37
8 03/18/2018 23:47:24 81.15,-136.97 83.65 03/18/2018 23:48:01 81.16,-136.80 83.69 2.98 37
9 03/21/2018 18:32:12 -81.13, 121.54 97.47 03/21/2018 18:31:44 -81.13, 121.39 97.50 2.50 28




NCC Satellite Simultaneous Nadir Overpasses (SNOs) Prediction Service
